Location: Luxembourg
(49.6117°N, 6.1300°E)
Time: 07:20:04
(UTC+02:00)

ISS - Pass Details

Date: 27 January 2019
Orbit: 411 x 421 km, 51.6° (Epoch: 16 October)

Event Time Altitude Azimuth Distance (km) Brightness Sun altitude
Rises 19:53:02 0° 266° (W) 2,371 1.5 -24.3°
Reaches altitude 10° 19:55:09 10° 270° (W) 1,508 0.1 -24.7°
Enters shadow 19:57:16 34° 283° (WNW) 714 -2.1 -25.0°
